EN

Hourly Weather Alsóújlak

Today, 21 January, Thursday

Time Temperature Precipitation Wind Pressure Humidity
00:00 +2°C° 0 mm 7 mps 743 mmHg 83%
01:00 +2°C° 0 mm 8 mps 743 mmHg 85%
02:00 +2°C° 0 mm 8 mps 742 mmHg 84%
03:00 +2°C° 0 mm 8 mps 742 mmHg 83%
04:00 +2°C° 0 mm 9 mps 742 mmHg 81%
05:00 +3°C° 0 mm 9 mps 741 mmHg 80%
06:00 +3°C° 0 mm 9 mps 741 mmHg 78%
07:00 +3°C° 0 mm 10 mps 742 mmHg 76%
08:00 +5°C° 0 mm 10 mps 742 mmHg 75%
09:00 +6°C° 0 mm 10 mps 742 mmHg 73%
10:00 +7°C° 0 mm 10 mps 742 mmHg 71%
11:00 +7°C° 0 mm 10 mps 742 mmHg 68%
12:00 +8°C° 0 mm 10 mps 742 mmHg 66%
13:00 +9°C° 0 mm 10 mps 742 mmHg 63%
14:00 +8°C° 0 mm 9 mps 742 mmHg 65%
15:00 +8°C° 0 mm 9 mps 742 mmHg 66%
16:00 +9°C° 0 mm 8 mps 742 mmHg 67%
17:00 +7°C° 0 mm 8 mps 741 mmHg 70%
18:00 +7°C° 0 mm 8 mps 741 mmHg 72%
19:00 +6°C° 0 mm 8 mps 741 mmHg 74%
20:00 +6°C° 0 mm 8 mps 741 mmHg 76%
21:00 +6°C° 0 mm 8 mps 741 mmHg 77%
22:00 +6°C° 0 mm 8 mps 741 mmHg 79%
23:00 +6°C° 0 mm 8 mps 740 mmHg 78%

Tomorrow, 22 January, Friday

Time Temperature Precipitation Wind Pressure Humidity
00:00 +6°C° 0 mm 8 mps 740 mmHg 78%
01:00 +6°C° 0 mm 9 mps 739 mmHg 78%
02:00 +6°C° 0 mm 9 mps 739 mmHg 78%
03:00 +6°C° 0 mm 9 mps 738 mmHg 77%
04:00 +6°C° 0 mm 9 mps 737 mmHg 77%
05:00 +7°C° 0 mm 9 mps 737 mmHg 77%
06:00 +7°C° 0 mm 9 mps 737 mmHg 77%
07:00 +7°C° 0 mm 9 mps 737 mmHg 78%
08:00 +7°C° 0 mm 9 mps 737 mmHg 77%
09:00 +8°C° 0 mm 9 mps 737 mmHg 76%
10:00 +8°C° 0 mm 9 mps 737 mmHg 75%
11:00 +10°C° 0 mm 9 mps 737 mmHg 75%
12:00 +10°C° 0 mm 9 mps 736 mmHg 74%
13:00 +10°C° 0 mm 9 mps 736 mmHg 73%
14:00 +10°C° 0 mm 8 mps 736 mmHg 74%
15:00 +10°C° 0 mm 7 mps 735 mmHg 75%
16:00 +10°C° 0 mm 6 mps 735 mmHg 76%
17:00 +9°C° 0 mm 6 mps 735 mmHg 78%
18:00 +9°C° 0 mm 5 mps 734 mmHg 81%
19:00 +8°C° 0 mm 5 mps 734 mmHg 83%
20:00 +8°C° 0 mm 6 mps 734 mmHg 83%
21:00 +8°C° 0 mm 6 mps 734 mmHg 82%
22:00 +8°C° 0 mm 6 mps 733 mmHg 82%
23:00 +8°C° 0.1 mm 6 mps 733 mmHg 83%

Day after tomorrow, 23 January, Saturday

Time Temperature Precipitation Wind Pressure Humidity
00:00 +8°C° 0.1 mm 7 mps 732 mmHg 85%
01:00 +8°C° 0.1 mm 7 mps 731 mmHg 86%
02:00 +8°C° 0.1 mm 7 mps 731 mmHg 85%
03:00 +8°C° 0.1 mm 7 mps 731 mmHg 84%
04:00 +7°C° 0.1 mm 8 mps 730 mmHg 83%
05:00 +7°C° 0 mm 8 mps 730 mmHg 82%
06:00 +8°C° 0 mm 7 mps 731 mmHg 82%
07:00 +8°C° 0 mm 7 mps 731 mmHg 82%
08:00 +8°C° 0 mm 7 mps 731 mmHg 81%
09:00 +8°C° 0 mm 7 mps 731 mmHg 80%
10:00 +8°C° 0 mm 6 mps 731 mmHg 79%
11:00 +8°C° 0 mm 6 mps 731 mmHg 78%
12:00 +9°C° 0 mm 5 mps 731 mmHg 78%
13:00 +9°C° 0 mm 5 mps 731 mmHg 78%
14:00 +8°C° 0.4 mm 4 mps 731 mmHg 79%
15:00 +7°C° 0.4 mm 4 mps 731 mmHg 81%
16:00 +6°C° 0.4 mm 4 mps 731 mmHg 82%
17:00 +5°C° 0.6 mm 5 mps 731 mmHg 86%
18:00 +3°C° 0.6 mm 6 mps 731 mmHg 90%
19:00 +1°C° 0.6 mm 6 mps 731 mmHg 93%
20:00 +1°C° 0.9 mm 6 mps 731 mmHg 94%
21:00 +1°C° 0.9 mm 6 mps 731 mmHg 94%
22:00 -1°C° 0.9 mm 6 mps 731 mmHg 94%
23:00 0°C° 0.2 mm 5 mps 731 mmHg 93%

24 January, Sunday

Time Temperature Precipitation Wind Pressure Humidity
00:00 0°C° 0.2 mm 5 mps 731 mmHg 91%
01:00 +1°C° 0.2 mm 5 mps 731 mmHg 90%
02:00 0°C° 0.1 mm 4 mps 731 mmHg 91%
03:00 0°C° 0.1 mm 4 mps 731 mmHg 92%
04:00 0°C° 0.1 mm 4 mps 731 mmHg 93%
05:00 0°C° 0 mm 4 mps 731 mmHg 91%
06:00 0°C° 0 mm 4 mps 732 mmHg 90%
07:00 +1°C° 0 mm 3 mps 732 mmHg 89%
08:00 +1°C° 0 mm 3 mps 733 mmHg 88%
09:00 +1°C° 0 mm 3 mps 733 mmHg 88%
10:00 +1°C° 0 mm 3 mps 734 mmHg 87%
11:00 +2°C° 0 mm 3 mps 734 mmHg 85%
12:00 +3°C° 0 mm 2 mps 734 mmHg 82%
13:00 +4°C° 0 mm 2 mps 734 mmHg 80%
14:00 +4°C° 0 mm 2 mps 734 mmHg 81%
15:00 +3°C° 0 mm 2 mps 734 mmHg 82%
16:00 +3°C° 0 mm 2 mps 735 mmHg 83%
17:00 +4°C° 0 mm 1 mps 735 mmHg 85%
18:00 +3°C° 0 mm 1 mps 735 mmHg 87%
19:00 +2°C° 0 mm 1 mps 736 mmHg 90%
20:00 +2°C° 0 mm 1 mps 735 mmHg 90%
21:00 +2°C° 0 mm 1 mps 735 mmHg 90%
22:00 +2°C° 0 mm 1 mps 735 mmHg 90%
23:00 +2°C° 0 mm 1 mps 735 mmHg 90%

25 January, Monday

Time Temperature Precipitation Wind Pressure Humidity
00:00 +1°C° 0 mm 1 mps 735 mmHg 89%
01:00 +1°C° 0 mm 1 mps 735 mmHg 88%
02:00 -1°C° 0 mm 2 mps 735 mmHg 86%
03:00 -1°C° 0 mm 2 mps 735 mmHg 85%
04:00 -1°C° 0 mm 3 mps 735 mmHg 83%
05:00 -1°C° 0 mm 3 mps 735 mmHg 80%
06:00 -2°C° 0 mm 4 mps 735 mmHg 76%
07:00 -2°C° 0 mm 4 mps 736 mmHg 72%
08:00 -1°C° 0 mm 5 mps 736 mmHg 69%
09:00 -2°C° 0 mm 6 mps 736 mmHg 65%
10:00 -1°C° 0 mm 7 mps 737 mmHg 61%
11:00 0°C° 0 mm 7 mps 737 mmHg 59%
12:00 0°C° 0 mm 7 mps 737 mmHg 57%
13:00 +2°C° 0 mm 7 mps 737 mmHg 54%
14:00 +1°C° 0 mm 6 mps 738 mmHg 57%
15:00 +1°C° 0 mm 5 mps 738 mmHg 61%
16:00 +1°C° 0 mm 5 mps 739 mmHg 64%
17:00 0°C° 0 mm 4 mps 739 mmHg 69%
18:00 -1°C° 0 mm 4 mps 740 mmHg 74%
19:00 -2°C° 0 mm 4 mps 741 mmHg 78%
20:00 -1°C° 0 mm 3 mps 741 mmHg 79%
21:00 -1°C° 0 mm 3 mps 742 mmHg 79%
22:00 -1°C° 0 mm 2 mps 742 mmHg 80%
23:00 -1°C° 0 mm 2 mps 743 mmHg 79%

26 January, Tuesday

Time Temperature Precipitation Wind Pressure Humidity
00:00 -2°C° 0 mm 2 mps 743 mmHg 78%
01:00 0°C° 0 mm 1 mps 743 mmHg 77%
02:00 0°C° 0 mm 1 mps 743 mmHg 76%
03:00 0°C° 0 mm 1 mps 743 mmHg 75%
04:00 0°C° 0 mm 1 mps 743 mmHg 74%
05:00 +1°C° 0 mm 1 mps 744 mmHg 73%
06:00 -1°C° 0 mm 2 mps 744 mmHg 73%
07:00 -1°C° 0 mm 2 mps 744 mmHg 72%
08:00 -1°C° 0 mm 2 mps 744 mmHg 68%
09:00 0°C° 0 mm 3 mps 744 mmHg 63%
10:00 +1°C° 0 mm 3 mps 744 mmHg 59%
11:00 +2°C° 0 mm 3 mps 744 mmHg 55%
12:00 +2°C° 0 mm 3 mps 744 mmHg 52%
13:00 +4°C° 0 mm 2 mps 744 mmHg 49%
14:00 +4°C° 0 mm 2 mps 744 mmHg 56%
15:00 +3°C° 0 mm 2 mps 745 mmHg 62%
16:00 +2°C° 0 mm 2 mps 745 mmHg 69%
17:00 +1°C° 0 mm 2 mps 745 mmHg 74%
18:00 +1°C° 0 mm 2 mps 746 mmHg 80%
19:00 +1°C° 0 mm 1 mps 746 mmHg 85%
20:00 0°C° 0 mm 1 mps 747 mmHg 86%
21:00 0°C° 0 mm 1 mps 747 mmHg 86%
22:00 0°C° 0 mm 1 mps 747 mmHg 87%
23:00 0°C° 0 mm 1 mps 747 mmHg 86%
Show more